| time (UTC) | temp F | wind direction | speed MPH | gust MPH | rain 1hr in | rain 24hr in | rain mn in | humidity % | barometer mb |
| 20260508122603 | 44 | 313 | 9.0 | 11.0 | 0.00 | 0.00 | 0.00 | 85 | 1016.4 |
| 20260508122101 | 44 | 289 | 9.0 | 10.0 | 0.00 | 0.00 | 0.00 | 86 | 1016.3 |
| 20260508121559 | 44 | 314 | 8.0 | 11.0 | 0.00 | 0.00 | 0.00 | 85 | 1016.1 |
| 20260508121057 | 44 | 322 | 6.0 | 11.0 | 0.00 | 0.00 | 0.00 | 86 | 1016.3 |
| 20260508120554 | 44 | 304 | 10.0 | 13.0 | 0.00 | 0.00 | 0.00 | 86 | 1016.4 |
| 20260508120052 | 44 | 276 | 10.0 | 15.0 | 0.00 | 0.00 | 0.00 | 86 | 1016.1 |
| 20260508115549 | 44 | 340 | 12.0 | 14.0 | 0.00 | 0.00 | 0.00 | 86 | 1016.1 |
| 20260508115046 | 44 | 303 | 8.0 | 15.0 | 0.00 | 0.00 | 0.00 | 85 | 1016.0 |
| 20260508114543 | 44 | 284 | 11.0 | 17.0 | 0.00 | 0.00 | 0.00 | 85 | 1016.0 |
| 20260508114039 | 44 | 216 | 9.0 | 16.0 | 0.00 | 0.00 | 0.00 | 86 | 1016.1 |
| 20260508113537 | 43 | 306 | 15.0 | 16.0 | 0.00 | 0.00 | 0.00 | 86 | 1015.8 |
| 20260508113035 | 43 | 270 | 11.0 | 16.0 | 0.00 | 0.00 | 0.00 | 86 | 1015.7 |
| 20260508112531 | 43 | 277 | 9.0 | 16.0 | 0.00 | 0.00 | 0.00 | 86 | 1016.1 |
| 20260508112027 | 43 | 236 | 9.0 | 15.0 | 0.00 | 0.00 | 0.00 | 87 | 1016.2 |
| 20260508111525 | 43 | 288 | 13.0 | 17.0 | 0.00 | 0.00 | 0.00 | 87 | 1016.2 |
| 20260508111021 | 43 | 276 | 9.0 | 11.0 | 0.00 | 0.00 | 0.00 | 88 | 1016.1 |
| 20260508110520 | 43 | 245 | 5.0 | 8.0 | 0.00 | 0.00 | 0.00 | 88 | 1015.8 |
| 20260508110015 | 43 | 251 | 5.0 | 7.0 | 0.00 | 0.00 | 0.00 | 89 | 1016.0 |
| 20260508105510 | 43 | 270 | 5.0 | 6.0 | 0.00 | 0.00 | 0.00 | 89 | 1016.0 |
| 20260508105008 | 43 | 243 | 4.0 | 6.0 | 0.00 | 0.00 | 0.00 | 90 | 1016.1 |
| 20260508104505 | 43 | 278 | 7.0 | 9.0 | 0.00 | 0.00 | 0.00 | 90 | 1016.2 |
| 20260508104001 | 43 | 290 | 8.0 | 11.0 | 0.00 | 0.00 | 0.00 | 90 | 1016.3 |
| 20260508103458 | 43 | 277 | 7.0 | 9.0 | 0.00 | 0.00 | 0.00 | 91 | 1016.1 |
| 20260508102955 | 43 | 245 | 7.0 | 9.0 | 0.00 | 0.00 | 0.00 | 91 | 1016.3 |
| 20260508102454 | 43 | 310 | 7.0 | 9.0 | 0.00 | 0.00 | 0.00 | 92 | 1016.6 |
| 20260508101950 | 43 | 234 | 6.0 | 8.0 | 0.00 | 0.00 | 0.00 | 92 | 1016.2 |
| 20260508101448 | 44 | 283 | 7.0 | 9.0 | 0.00 | 0.00 | 0.00 | 91 | 1015.8 |
| 20260508100945 | 44 | 308 | 5.0 | 7.0 | 0.00 | 0.00 | 0.00 | 92 | 1015.8 |
| 20260508100444 | 44 | 304 | 6.0 | 8.0 | 0.00 | 0.00 | 0.00 | 91 | 1015.8 |
| 20260508095939 | 44 | 196 | 3.0 | 6.0 | 0.00 | 0.00 | 0.00 | 91 | 1015.8 |
| 20260508095437 | 44 | 289 | 5.0 | 7.0 | 0.00 | 0.00 | 0.00 | 91 | 1016.1 |
| 20260508094934 | 45 | 310 | 6.0 | 8.0 | 0.00 | 0.00 | 0.00 | 91 | 1016.1 |
| 20260508094431 | 44 | 330 | 9.0 | 11.0 | 0.00 | 0.00 | 0.00 | 91 | 1016.3 |
| 20260508093927 | 45 | 287 | 10.0 | 13.0 | 0.00 | 0.00 | 0.00 | 91 | 1016.2 |
| 20260508093425 | 44 | 296 | 9.0 | 13.0 | 0.00 | 0.00 | 0.00 | 91 | 1016.7 |
| 20260508092923 | 45 | 319 | 10.0 | 14.0 | 0.00 | 0.00 | 0.00 | 90 | 1016.4 |
| 20260508092421 | 45 | 296 | 11.0 | 13.0 | 0.00 | 0.00 | 0.00 | 90 | 1016.6 |
| 20260508091919 | 45 | 310 | 13.0 | 15.0 | 0.00 | 0.00 | 0.00 | 90 | 1016.6 |
| 20260508091415 | 45 | 308 | 11.0 | 15.0 | 0.00 | 0.00 | 0.00 | 90 | 1016.4 |
| 20260508090912 | 45 | 306 | 14.0 | 17.0 | 0.00 | 0.00 | 0.00 | 91 | 1016.6 |
| 20260508090411 | 45 | 324 | 15.0 | 16.0 | 0.00 | 0.00 | 0.00 | 91 | 1016.1 |
| 20260508085912 | 45 | 319 | 13.0 | 17.0 | 0.00 | 0.00 | 0.00 | 91 | 1016.4 |
| 20260508085409 | 45 | 301 | 10.0 | 15.0 | 0.00 | 0.00 | 0.00 | 91 | 1016.3 |
| 20260508084905 | 44 | 287 | 11.0 | 16.0 | 0.00 | 0.00 | 0.00 | 91 | 1016.3 |
| 20260508084402 | 44 | 276 | 13.0 | 14.0 | 0.00 | 0.00 | 0.00 | 90 | 1016.1 |
| 20260508083900 | 44 | 264 | 11.0 | 13.0 | 0.00 | 0.00 | 0.00 | 90 | 1016.2 |
| 20260508083357 | 44 | 265 | 9.0 | 11.0 | 0.00 | 0.00 | 0.00 | 90 | 1016.6 |
| 20260508082856 | 44 | 287 | 11.0 | 13.0 | 0.00 | 0.00 | 0.00 | 90 | 1016.3 |
| 20260508082354 | 44 | 299 | 8.0 | 10.0 | 0.00 | 0.00 | 0.00 | 90 | 1016.3 |
| 20260508081852 | 44 | 281 | 8.0 | 10.0 | 0.00 | 0.00 | 0.00 | 90 | 1016.2 |
| 20260508081348 | 44 | 305 | 6.0 | 10.0 | 0.00 | 0.00 | 0.00 | 90 | 1016.2 |
| 20260508080846 | 44 | 242 | 7.0 | 9.0 | 0.00 | 0.00 | 0.00 | 90 | 1016.1 |
| 20260508080343 | 44 | 279 | 5.0 | 8.0 | 0.00 | 0.00 | 0.00 | 90 | 1016.2 |
| 20260508075840 | 44 | 298 | 5.0 | 7.0 | 0.00 | 0.00 | 0.00 | 90 | 1016.4 |
| 20260508075337 | 44 | 281 | 7.0 | 9.0 | 0.00 | 0.00 | 0.00 | 90 | 1016.0 |
| 20260508074835 | 44 | 283 | 6.0 | 7.0 | 0.00 | 0.00 | 0.00 | 90 | 1016.3 |
| 20260508074331 | 44 | 273 | 5.0 | 8.0 | 0.00 | 0.00 | 0.00 | 90 | 1016.3 |
| 20260508073828 | 44 | 261 | 5.0 | 7.0 | 0.00 | 0.00 | 0.00 | 91 | 1016.2 |
| 20260508073326 | 43 | 228 | 3.0 | 6.0 | 0.00 | 0.00 | 0.00 | 91 | 1016.2 |
| 20260508072822 | 43 | 284 | 4.0 | 6.0 | 0.00 | 0.00 | 0.00 | 92 | 1016.2 |
| 20260508072319 | 43 | 281 | 6.0 | 6.0 | 0.00 | 0.00 | 0.00 | 92 | 1016.3 |
| 20260508071816 | 43 | 291 | 6.0 | 7.0 | 0.00 | 0.00 | 0.00 | 92 | 1015.8 |
| 20260508071315 | 44 | 231 | 3.0 | 6.0 | 0.00 | 0.00 | 0.00 | 92 | 1016.3 |
| 20260508070812 | 44 | 273 | 5.0 | 7.0 | 0.00 | 0.00 | 0.00 | 92 | 1016.2 |
| 20260508070310 | 44 | 268 | 6.0 | 9.0 | 0.00 | 0.00 | 0.00 | 92 | 1016.8 |
| 20260508065807 | 43 | 288 | 7.0 | 8.0 | 0.00 | 0.00 | 0.00 | 92 | 1016.7 |
| 20260508065307 | 43 | 241 | 2.0 | 7.0 | 0.00 | 0.00 | 0.00 | 92 | 1016.6 |
| 20260508064803 | 43 | 257 | 4.0 | 7.0 | 0.00 | 0.00 | 0.00 | 92 | 1016.8 |
| 20260508064300 | 44 | 233 | 5.0 | 6.0 | 0.00 | 0.00 | 0.00 | 92 | 1016.4 |
| 20260508063758 | 44 | 251 | 4.0 | 6.0 | 0.00 | 0.00 | 0.00 | 92 | 1016.7 |
| 20260508063256 | 44 | 270 | 6.0 | 7.0 | 0.00 | 0.00 | 0.00 | 92 | 1016.7 |
| 20260508062752 | 44 | 252 | 5.0 | 7.0 | 0.00 | 0.00 | 0.00 | 92 | 1016.7 |
| 20260508062250 | 43 | 229 | 3.0 | 6.0 | 0.00 | 0.00 | 0.00 | 92 | 1016.6 |
| 20260508061747 | 43 | 269 | 4.0 | 6.0 | 0.00 | 0.00 | 0.00 | 92 | 1016.8 |
| 20260508061244 | 43 | 232 | 3.0 | 3.0 | 0.00 | 0.00 | 0.00 | 92 | 1016.7 |
| 20260508060740 | 43 | 276 | 2.0 | 5.0 | 0.00 | 0.00 | 0.00 | 92 | 1016.7 |
| 20260508060239 | 43 | 250 | 0.0 | 3.0 | 0.00 | 0.00 | 0.00 | 92 | 1016.7 |
| 20260508055733 | 43 | 286 | 0.0 | 5.0 | 0.00 | 0.06 | 0.06 | 92 | 1016.8 |
| 20260508055231 | 43 | 247 | 0.0 | 3.0 | 0.00 | 0.06 | 0.06 | 92 | 1016.4 |
| 20260508054727 | 43 | 324 | 4.0 | 5.0 | 0.00 | 0.06 | 0.06 | 92 | 1016.6 |
| 20260508054226 | 43 | 116 | 3.0 | 3.0 | 0.00 | 0.06 | 0.06 | 92 | 1016.6 |
| 20260508053722 | 43 | 31 | 1.0 | 2.0 | 0.00 | 0.06 | 0.06 | 92 | 1016.7 |
| 20260508053219 | 44 | 68 | 0.0 | 6.0 | 0.00 | 0.06 | 0.06 | 92 | 1016.6 |
| 20260508052716 | 44 | 222 | 2.0 | 2.0 | 0.00 | 0.06 | 0.06 | 91 | 1016.7 |
| 20260508052213 | 44 | 195 | 0.0 | 0.0 | 0.00 | 0.06 | 0.06 | 92 | 1016.7 |
| 20260508051710 | 44 | 358 | 5.0 | 7.0 | 0.00 | 0.06 | 0.06 | 91 | 1016.9 |
| 20260508051205 | 44 | 123 | 1.0 | 2.0 | 0.00 | 0.06 | 0.06 | 91 | 1016.3 |
| 20260508050701 | 44 | 97 | 0.0 | 7.0 | 0.00 | 0.06 | 0.06 | 91 | 1017.3 |
| 20260508050159 | 44 | 280 | 7.0 | 9.0 | 0.00 | 0.06 | 0.06 | 91 | 1017.5 |
| 20260508045654 | 45 | 324 | 8.0 | 13.0 | 0.05 | 0.06 | 0.06 | 90 | 1017.4 |
| 20260508045153 | 45 | 350 | 13.0 | 20.0 | 0.12 | 0.06 | 0.06 | 89 | 1017.7 |
| 20260508044650 | 45 | 316 | 19.0 | 25.0 | 0.07 | 0.05 | 0.05 | 89 | 1017.6 |
| 20260508044146 | 45 | 237 | 14.0 | 22.0 | 0.17 | 0.04 | 0.04 | 89 | 1017.4 |
| 20260508043642 | 46 | 331 | 14.0 | 23.0 | 0.17 | 0.04 | 0.04 | 87 | 1016.8 |
| 20260508043140 | 46 | 324 | 22.0 | 27.0 | 0.00 | 0.01 | 0.01 | 85 | 1017.0 |
| 20260508042637 | 46 | 9 | 9.0 | 10.0 | 0.00 | 0.01 | 0.01 | 85 | 1016.4 |
| 20260508042134 | 46 | 268 | 5.0 | 6.0 | 0.00 | 0.01 | 0.01 | 85 | 1016.4 |
| 20260508041630 | 46 | 244 | 0.0 | 0.0 | 0.00 | 0.01 | 0.01 | 84 | 1016.2 |
| 20260508041127 | 46 | 253 | 3.0 | 3.0 | 0.00 | 0.01 | 0.01 | 84 | 1016.2 |
| 20260508040623 | 46 | 276 | 4.0 | 5.0 | 0.00 | 0.01 | 0.01 | 84 | 1016.1 |
| 20260508040121 | 46 | 261 | 5.0 | 5.0 | 0.00 | 0.01 | 0.01 | 84 | 1016.1 |
| 20260508035618 | 45 | 259 | 3.0 | 5.0 | 0.00 | 0.01 | 0.01 | 85 | 1016.2 |
| 20260508035116 | 45 | 257 | 3.0 | 5.0 | 0.00 | 0.01 | 0.01 | 85 | 1016.1 |
| 20260508034612 | 46 | 312 | 5.0 | 7.0 | 0.00 | 0.01 | 0.01 | 84 | 1016.2 |
| 20260508034109 | 46 | 203 | 4.0 | 8.0 | 0.00 | 0.01 | 0.01 | 83 | 1016.2 |
| 20260508033607 | 46 | 322 | 6.0 | 9.0 | 0.00 | 0.01 | 0.01 | 83 | 1016.3 |
| 20260508033105 | 47 | 333 | 7.0 | 9.0 | 0.00 | 0.01 | 0.01 | 83 | 1016.4 |
| 20260508032601 | 46 | 337 | 6.0 | 9.0 | 0.00 | 0.01 | 0.01 | 84 | 1016.3 |
| 20260508032059 | 47 | 294 | 6.0 | 8.0 | 0.00 | 0.01 | 0.01 | 84 | 1016.2 |
| 20260508031556 | 47 | 328 | 7.0 | 11.0 | 0.00 | 0.01 | 0.01 | 83 | 1016.0 |
| 20260508031051 | 47 | 319 | 9.0 | 10.0 | 0.00 | 0.01 | 0.01 | 82 | 1015.8 |
| 20260508030548 | 48 | 304 | 8.0 | 10.0 | 0.00 | 0.01 | 0.01 | 81 | 1015.7 |
| 20260508030046 | 48 | 286 | 7.0 | 10.0 | 0.00 | 0.01 | 0.01 | 80 | 1015.7 |
| 20260508025542 | 48 | 329 | 9.0 | 13.0 | 0.00 | 0.01 | 0.01 | 79 | 1015.7 |
| 20260508025039 | 48 | 306 | 5.0 | 6.0 | 0.00 | 0.01 | 0.01 | 82 | 1015.3 |
| 20260508024535 | 48 | 321 | 4.0 | 5.0 | 0.00 | 0.01 | 0.01 | 83 | 1015.5 |
| 20260508024032 | 48 | 299 | 3.0 | 5.0 | 0.00 | 0.01 | 0.01 | 84 | 1015.5 |
| 20260508023528 | 48 | 225 | 3.0 | 6.0 | 0.00 | 0.01 | 0.01 | 82 | 1015.0 |
| 20260508023026 | 47 | 335 | 4.0 | 7.0 | 0.00 | 0.01 | 0.01 | 83 | 1015.4 |
| 20260508022522 | 47 | 29 | 4.0 | 5.0 | 0.00 | 0.01 | 0.01 | 83 | 1015.3 |
| 20260508022019 | 48 | 49 | 7.0 | 7.0 | 0.00 | 0.01 | 0.01 | 82 | 1015.4 |
| 20260508021515 | 48 | 357 | 6.0 | 8.0 | 0.00 | 0.01 | 0.01 | 82 | 1015.1 |
| 20260508021011 | 48 | 359 | 6.0 | 7.0 | 0.00 | 0.01 | 0.01 | 82 | 1014.5 |
| 20260508020509 | 48 | 33 | 8.0 | 10.0 | 0.07 | 0.01 | 0.01 | 82 | 1014.5 |
| 20260508020006 | 49 | 29 | 7.0 | 13.0 | 0.07 | 0.01 | 0.01 | 82 | 1014.7 |
| 20260508015504 | 50 | 350 | 8.0 | 14.0 | 0.00 | 0.00 | 0.00 | 79 | 1015.6 |
| 20260508015000 | 50 | 312 | 13.0 | 15.0 | 0.00 | 0.00 | 0.00 | 79 | 1015.4 |
| 20260508014456 | 50 | 325 | 7.0 | 9.0 | 0.00 | 0.00 | 0.00 | 81 | 1015.3 |
| 20260508013952 | 50 | 307 | 7.0 | 8.0 | 0.00 | 0.00 | 0.00 | 80 | 1014.9 |
| 20260508013448 | 51 | 299 | 4.0 | 8.0 | 0.00 | 0.00 | 0.00 | 78 | 1014.4 |
| 20260508012947 | 51 | 296 | 4.0 | 7.0 | 0.00 | 0.00 | 0.00 | 77 | 1014.7 |
| 20260508012443 | 51 | 290 | 6.0 | 10.0 | 0.00 | 0.00 | 0.00 | 76 | 1014.3 |
| 20260508011941 | 52 | 239 | 7.0 | 9.0 | 0.00 | 0.00 | 0.00 | 76 | 1014.3 |
| 20260508011438 | 52 | 224 | 1.0 | 5.0 | 0.00 | 0.00 | 0.00 | 75 | 1014.3 |
| 20260508010936 | 51 | 250 | 2.0 | 5.0 | 0.00 | 0.00 | 0.00 | 76 | 1014.3 |
| 20260508010433 | 51 | 228 | 1.0 | 7.0 | 0.00 | 0.00 | 0.00 | 76 | 1014.1 |
| 20260508005930 | 51 | 238 | 4.0 | 7.0 | 0.00 | 0.00 | 0.00 | 75 | 1014.1 |
| 20260508005426 | 52 | 215 | 5.0 | 6.0 | 0.00 | 0.00 | 0.00 | 75 | 1014.0 |
| 20260508004923 | 52 | 222 | 10.0 | 10.0 | 0.00 | 0.00 | 0.00 | 73 | 1013.8 |
| 20260508004414 | 53 | 239 | 8.0 | 11.0 | 0.00 | 0.00 | 0.00 | 74 | 1014.1 |
| 20260508003910 | 54 | 208 | 10.0 | 11.0 | 0.00 | 0.00 | 0.00 | 73 | 1013.8 |
| 20260508003407 | 55 | 180 | 8.0 | 9.0 | 0.00 | 0.00 | 0.00 | 68 | 1013.6 |
| 20260508002904 | 55 | 178 | 7.0 | 9.0 | 0.00 | 0.00 | 0.00 | 66 | 1013.7 |
| 20260508002401 | 56 | 181 | 5.0 | 7.0 | 0.00 | 0.00 | 0.00 | 65 | 1013.8 |
| 20260508001857 | 56 | 179 | 4.0 | 7.0 | 0.00 | 0.00 | 0.00 | 61 | 1014.1 |
| 20260508001353 | 55 | 172 | 0.0 | 5.0 | 0.00 | 0.00 | 0.00 | 63 | 1013.8 |
| 20260508000849 | 55 | 188 | 2.0 | 3.0 | 0.00 | 0.00 | 0.00 | 66 | 1014.1 |
| 20260508000346 | 54 | 188 | 0.0 | 0.0 | 0.00 | 0.00 | 0.00 | 67 | 1014.1 |
| 20260507235843 | 55 | 198 | 0.0 | 3.0 | 0.00 | 0.00 | 0.00 | 66 | 1014.0 |
| 20260507235340 | 55 | 196 | 0.0 | 0.0 | 0.00 | 0.00 | 0.00 | 64 | 1013.8 |
| 20260507234837 | 55 | 182 | 0.0 | 0.0 | 0.00 | 0.00 | 0.00 | 63 | 1013.8 |
| 20260507234333 | 55 | 195 | 1.0 | 3.0 | 0.00 | 0.00 | 0.00 | 65 | 1014.3 |
| 20260507233830 | 55 | 1 | 7.0 | 8.0 | 0.00 | 0.00 | 0.00 | 63 | 1013.7 |
| 20260507233328 | 55 | 11 | 8.0 | 16.0 | 0.00 | 0.00 | 0.00 | 63 | 1013.7 |
| 20260507232826 | 55 | 55 | 6.0 | 13.0 | 0.00 | 0.00 | 0.00 | 63 | 1013.5 |
| 20260507232322 | 55 | 34 | 4.0 | 11.0 | 0.00 | 0.00 | 0.00 | 64 | 1013.8 |
| 20260507231819 | 55 | 55 | 7.0 | 10.0 | 0.00 | 0.00 | 0.00 | 67 | 1014.0 |
| 20260507231316 | 55 | 24 | 7.0 | 14.0 | 0.00 | 0.00 | 0.00 | 66 | 1013.7 |
| 20260507230812 | 56 | 37 | 17.0 | 22.0 | 0.00 | 0.00 | 0.00 | 68 | 1013.7 |
| 20260507230310 | 55 | 37 | 17.0 | 25.0 | 0.00 | 0.00 | 0.00 | 68 | 1014.0 |
| 20260507225809 | 55 | 13 | 19.0 | 26.0 | 0.00 | 0.00 | 0.00 | 69 | 1014.0 |
| 20260507225306 | 55 | 40 | 15.0 | 23.0 | 0.00 | 0.00 | 0.00 | 69 | 1013.7 |
| 20260507224802 | 57 | 28 | 19.0 | 29.0 | 0.00 | 0.00 | 0.00 | 64 | 1013.6 |
| 20260507224259 | 58 | 59 | 4.0 | 8.0 | 0.00 | 0.00 | 0.00 | 56 | 1013.5 |
| 20260507223755 | 58 | 224 | 0.0 | 7.0 | 0.00 | 0.00 | 0.00 | 57 | 1013.4 |
| 20260507223251 | 58 | 207 | 0.0 | 2.0 | 0.00 | 0.00 | 0.00 | 57 | 1013.1 |
| 20260507222748 | 59 | 225 | 0.0 | 3.0 | 0.00 | 0.00 | 0.00 | 59 | 1013.4 |
| 20260507222239 | 58 | 262 | 6.0 | 9.0 | 0.00 | 0.00 | 0.00 | 61 | 1013.2 |
| 20260507221737 | 56 | 213 | 5.0 | 10.0 | 0.00 | 0.00 | 0.00 | 59 | 1013.6 |
| 20260507221232 | 55 | 225 | 12.0 | 15.0 | 0.00 | 0.00 | 0.00 | 68 | 1013.8 |
| 20260507220729 | 56 | 253 | 5.0 | 6.0 | 0.00 | 0.00 | 0.00 | 60 | 1013.8 |
| 20260507220227 | 56 | 126 | 3.0 | 5.0 | 0.00 | 0.00 | 0.00 | 61 | 1013.5 |
| 20260507215723 | 57 | 47 | 3.0 | 9.0 | 0.00 | 0.00 | 0.00 | 62 | 1013.2 |
| 20260507215221 | 57 | 66 | 1.0 | 3.0 | 0.00 | 0.00 | 0.00 | 60 | 1013.2 |
| 20260507214718 | 58 | 43 | 5.0 | 7.0 | 0.00 | 0.00 | 0.00 | 59 | 1013.2 |
| 20260507214215 | 58 | 180 | 0.0 | 5.0 | 0.00 | 0.00 | 0.00 | 59 | 1013.5 |
| 20260507213710 | 58 | 145 | 5.0 | 6.0 | 0.00 | 0.00 | 0.00 | 61 | 1013.1 |
| 20260507213208 | 57 | 163 | 1.0 | 3.0 | 0.00 | 0.00 | 0.00 | 58 | 1013.1 |
| 20260507212704 | 56 | 174 | 0.0 | 0.0 | 0.00 | 0.00 | 0.00 | 58 | 1013.6 |
| 20260507212200 | 57 | 131 | 2.0 | 3.0 | 0.00 | 0.00 | 0.00 | 61 | 1013.6 |
| 20260507211657 | 56 | 180 | 2.0 | 3.0 | 0.00 | 0.00 | 0.00 | 58 | 1013.5 |
| 20260507211153 | 56 | 171 | 3.0 | 3.0 | 0.00 | 0.00 | 0.00 | 59 | 1013.6 |
| 20260507210650 | 54 | 178 | 1.0 | 2.0 | 0.00 | 0.00 | 0.00 | 63 | 1013.7 |
| 20260507210147 | 54 | 218 | 5.0 | 7.0 | 0.00 | 0.00 | 0.00 | 70 | 1013.7 |
| 20260507205643 | 53 | 190 | 0.0 | 6.0 | 0.00 | 0.00 | 0.00 | 65 | 1013.7 |
| 20260507205140 | 54 | 217 | 3.0 | 3.0 | 0.00 | 0.00 | 0.00 | 68 | 1014.3 |
| 20260507204636 | 54 | 179 | 3.0 | 6.0 | 0.00 | 0.00 | 0.00 | 65 | 1014.2 |
| 20260507204134 | 55 | 215 | 3.0 | 5.0 | 0.00 | 0.00 | 0.00 | 58 | 1014.3 |
| 20260507203631 | 53 | 175 | 4.0 | 6.0 | 0.00 | 0.00 | 0.00 | 64 | 1014.2 |
| 20260507203129 | 52 | 190 | 4.0 | 7.0 | 0.00 | 0.00 | 0.00 | 71 | 1014.3 |
| 20260507202625 | 52 | 210 | 7.0 | 8.0 | 0.00 | 0.00 | 0.00 | 69 | 1014.3 |
| 20260507202121 | 52 | 202 | 4.0 | 6.0 | 0.00 | 0.00 | 0.00 | 73 | 1014.8 |
| 20260507201616 | 52 | 195 | 5.0 | 5.0 | 0.00 | 0.00 | 0.00 | 70 | 1014.9 |
| 20260507201114 | 52 | 234 | 4.0 | 6.0 | 0.00 | 0.00 | 0.00 | 65 | 1014.9 |
| 20260507200609 | 52 | 210 | 7.0 | 8.0 | 0.00 | 0.00 | 0.00 | 70 | 1015.0 |
| 20260507200105 | 52 | 232 | 5.0 | 6.0 | 0.00 | 0.00 | 0.00 | 73 | 1015.1 |
| 20260507195603 | 53 | 220 | 7.0 | 9.0 | 0.00 | 0.00 | 0.00 | 69 | 1015.3 |
| 20260507195100 | 53 | 227 | 3.0 | 6.0 | 0.00 | 0.00 | 0.00 | 67 | 1015.3 |
| 20260507194556 | 52 | 221 | 7.0 | 8.0 | 0.00 | 0.00 | 0.00 | 67 | 1015.4 |
| 20260507194052 | 53 | 227 | 9.0 | 10.0 | 0.00 | 0.00 | 0.00 | 68 | 1015.3 |
| 20260507193549 | 53 | 224 | 8.0 | 11.0 | 0.00 | 0.00 | 0.00 | 66 | 1015.3 |
| 20260507193046 | 53 | 228 | 11.0 | 14.0 | 0.00 | 0.00 | 0.00 | 64 | 1015.3 |
| 20260507192542 | 53 | 240 | 12.0 | 16.0 | 0.00 | 0.00 | 0.00 | 64 | 1015.4 |
| 20260507192039 | 53 | 240 | 17.0 | 20.0 | 0.00 | 0.00 | 0.00 | 64 | 1015.6 |
| 20260507191535 | 53 | 252 | 10.0 | 13.0 | 0.00 | 0.00 | 0.00 | 63 | 1016.0 |
| 20260507191032 | 53 | 239 | 4.0 | 8.0 | 0.00 | 0.00 | 0.00 | 62 | 1015.8 |
| 20260507190529 | 54 | 271 | 6.0 | 9.0 | 0.00 | 0.00 | 0.00 | 61 | 1016.0 |
| 20260507190028 | 53 | 280 | 6.0 | 10.0 | 0.00 | 0.00 | 0.00 | 60 | 1015.8 |
| 20260507185526 | 53 | 290 | 9.0 | 14.0 | 0.00 | 0.00 | 0.00 | 59 | 1016.1 |
| 20260507185022 | 53 | 285 | 8.0 | 11.0 | 0.00 | 0.00 | 0.00 | 58 | 1016.2 |
| 20260507184521 | 52 | 318 | 11.0 | 15.0 | 0.00 | 0.00 | 0.00 | 63 | 1016.3 |
| 20260507184018 | 51 | 289 | 7.0 | 14.0 | 0.00 | 0.00 | 0.00 | 65 | 1016.7 |
| 20260507183513 | 51 | 45 | 7.0 | 13.0 | 0.00 | 0.00 | 0.00 | 67 | 1016.4 |
| 20260507183011 | 51 | 244 | 13.0 | 20.0 | 0.00 | 0.00 | 0.00 | 66 | 1016.6 |
| 20260507182507 | 52 | 345 | 17.0 | 25.0 | 0.00 | 0.00 | 0.00 | 63 | 1016.4 |
| 20260507182003 | 54 | 313 | 18.0 | 26.0 | 0.00 | 0.00 | 0.00 | 62 | 1016.0 |
| 20260507181500 | 56 | 319 | 27.0 | 30.0 | 0.00 | 0.00 | 0.00 | 54 | 1016.2 |
| 20260507180956 | 57 | 301 | 16.0 | 22.0 | 0.00 | 0.00 | 0.00 | 46 | 1016.1 |
| 20260507180453 | 58 | 301 | 10.0 | 18.0 | 0.00 | 0.00 | 0.00 | 46 | 1016.0 |
| 20260507175949 | 58 | 285 | 14.0 | 21.0 | 0.00 | 0.00 | 0.00 | 44 | 1016.1 |
| 20260507175446 | 58 | 260 | 13.0 | 20.0 | 0.00 | 0.00 | 0.00 | 44 | 1016.0 |
| 20260507174944 | 57 | 285 | 13.0 | 18.0 | 0.00 | 0.00 | 0.00 | 45 | 1016.2 |
| 20260507174441 | 55 | 302 | 9.0 | 13.0 | 0.00 | 0.00 | 0.00 | 49 | 1016.3 |
| 20260507173938 | 54 | 318 | 6.0 | 7.0 | 0.00 | 0.00 | 0.00 | 58 | 1016.3 |
| 20260507173435 | 53 | 293 | 6.0 | 9.0 | 0.00 | 0.00 | 0.00 | 57 | 1016.3 |
| 20260507172932 | 53 | 219 | 7.0 | 11.0 | 0.00 | 0.00 | 0.00 | 59 | 1016.4 |
| 20260507172428 | 53 | 7 | 8.0 | 9.0 | 0.00 | 0.00 | 0.00 | 60 | 1016.3 |
| 20260507171925 | 53 | 12 | 6.0 | 9.0 | 0.00 | 0.00 | 0.00 | 61 | 1016.4 |
| 20260507171421 | 54 | 266 | 9.0 | 13.0 | 0.00 | 0.00 | 0.00 | 53 | 1016.4 |
| 20260507170918 | 54 | 301 | 13.0 | 15.0 | 0.00 | 0.00 | 0.00 | 50 | 1016.3 |
| 20260507170414 | 54 | 276 | 13.0 | 15.0 | 0.00 | 0.00 | 0.00 | 52 | 1016.3 |
| 20260507165911 | 54 | 342 | 11.0 | 16.0 | 0.00 | 0.00 | 0.00 | 54 | 1016.4 |
| 20260507165407 | 54 | 343 | 14.0 | 16.0 | 0.00 | 0.00 | 0.00 | 54 | 1016.4 |
| 20260507164902 | 54 | 322 | 15.0 | 20.0 | 0.00 | 0.00 | 0.00 | 54 | 1016.7 |
| 20260507164400 | 53 | 282 | 14.0 | 24.0 | 0.00 | 0.00 | 0.00 | 56 | 1016.2 |
| 20260507163857 | 52 | 336 | 11.0 | 21.0 | 0.00 | 0.00 | 0.00 | 58 | 1016.7 |
| 20260507163355 | 52 | 319 | 14.0 | 17.0 | 0.00 | 0.00 | 0.00 | 58 | 1016.6 |
| 20260507162851 | 51 | 284 | 17.0 | 22.0 | 0.00 | 0.00 | 0.00 | 55 | 1016.3 |
| 20260507162346 | 51 | 307 | 11.0 | 14.0 | 0.00 | 0.00 | 0.00 | 55 | 1016.3 |
| 20260507161844 | 50 | 283 | 9.0 | 15.0 | 0.00 | 0.00 | 0.00 | 54 | 1016.4 |
| 20260507161340 | 50 | 266 | 9.0 | 18.0 | 0.00 | 0.00 | 0.00 | 55 | 1016.4 |
| 20260507160837 | 51 | 265 | 15.0 | 18.0 | 0.00 | 0.00 | 0.00 | 55 | 1016.2 |
| 20260507160332 | 51 | 242 | 8.0 | 16.0 | 0.00 | 0.00 | 0.00 | 53 | 1016.3 |
| 20260507155829 | 51 | 289 | 18.0 | 26.0 | 0.00 | 0.00 | 0.00 | 52 | 1016.2 |
| 20260507155325 | 52 | 279 | 15.0 | 20.0 | 0.00 | 0.00 | 0.00 | 51 | 1016.0 |
| 20260507154822 | 53 | 283 | 18.0 | 25.0 | 0.00 | 0.00 | 0.00 | 50 | 1015.8 |
| 20260507154319 | 54 | 228 | 22.0 | 26.0 | 0.00 | 0.00 | 0.00 | 47 | 1015.6 |
| 20260507153816 | 53 | 239 | 20.0 | 25.0 | 0.00 | 0.00 | 0.00 | 47 | 1015.7 |
| 20260507153312 | 52 | 274 | 22.0 | 25.0 | 0.00 | 0.00 | 0.00 | 48 | 1016.0 |
| 20260507152809 | 52 | 237 | 21.0 | 25.0 | 0.00 | 0.00 | 0.00 | 48 | 1015.8 |
| 20260507152306 | 53 | 281 | 20.0 | 27.0 | 0.00 | 0.00 | 0.00 | 48 | 1016.1 |
| 20260507151801 | 53 | 273 | 23.0 | 30.0 | 0.00 | 0.00 | 0.00 | 47 | 1015.8 |
| 20260507151257 | 53 | 283 | 15.0 | 24.0 | 0.00 | 0.00 | 0.00 | 48 | 1015.8 |
| 20260507150755 | 53 | 255 | 13.0 | 23.0 | 0.00 | 0.00 | 0.00 | 49 | 1015.6 |
| 20260507150251 | 52 | 282 | 15.0 | 26.0 | 0.00 | 0.00 | 0.00 | 50 | 1015.8 |
| 20260507145748 | 51 | 240 | 17.0 | 26.0 | 0.00 | 0.00 | 0.00 | 50 | 1016.0 |
| 20260507145244 | 51 | 258 | 21.0 | 24.0 | 0.00 | 0.00 | 0.00 | 50 | 1015.8 |
| 20260507144741 | 51 | 251 | 16.0 | 34.0 | 0.00 | 0.00 | 0.00 | 51 | 1015.8 |
| 20260507144239 | 51 | 312 | 20.0 | 24.0 | 0.00 | 0.00 | 0.00 | 51 | 1016.0 |
| 20260507143735 | 51 | 235 | 19.0 | 27.0 | 0.00 | 0.00 | 0.00 | 50 | 1015.6 |
| 20260507143232 | 51 | 252 | 17.0 | 21.0 | 0.00 | 0.00 | 0.00 | 51 | 1015.7 |
| 20260507142728 | 51 | 250 | 17.0 | 26.0 | 0.00 | 0.00 | 0.00 | 52 | 1015.6 |
| 20260507142225 | 51 | 265 | 15.0 | 22.0 | 0.00 | 0.00 | 0.00 | 52 | 1015.6 |
| 20260507141721 | 50 | 280 | 17.0 | 21.0 | 0.00 | 0.00 | 0.00 | 53 | 1015.6 |
| 20260507141219 | 50 | 303 | 17.0 | 21.0 | 0.00 | 0.00 | 0.00 | 53 | 1015.6 |
| 20260507140714 | 50 | 294 | 16.0 | 25.0 | 0.00 | 0.00 | 0.00 | 52 | 1015.8 |
| 20260507140212 | 49 | 293 | 19.0 | 23.0 | 0.00 | 0.00 | 0.00 | 54 | 1015.6 |
| 20260507135709 | 47 | 283 | 16.0 | 18.0 | 0.00 | 0.00 | 0.00 | 57 | 1015.7 |
| 20260507135206 | 46 | 254 | 11.0 | 17.0 | 0.00 | 0.00 | 0.00 | 59 | 1015.7 |
| 20260507134703 | 46 | 269 | 13.0 | 18.0 | 0.00 | 0.00 | 0.00 | 60 | 1015.7 |
| 20260507134159 | 46 | 279 | 12.0 | 20.0 | 0.00 | 0.00 | 0.00 | 60 | 1015.6 |
| 20260507133655 | 45 | 289 | 13.0 | 18.0 | 0.00 | 0.00 | 0.00 | 60 | 1015.6 |
| 20260507133152 | 45 | 291 | 12.0 | 15.0 | 0.00 | 0.00 | 0.00 | 61 | 1015.6 |
| 20260507132649 | 45 | 260 | 14.0 | 18.0 | 0.00 | 0.00 | 0.00 | 61 | 1015.6 |
| 20260507132145 | 45 | 275 | 14.0 | 20.0 | 0.00 | 0.00 | 0.00 | 61 | 1015.5 |
| 20260507131643 | 44 | 269 | 19.0 | 25.0 | 0.00 | 0.00 | 0.00 | 61 | 1015.1 |
| 20260507131140 | 44 | 243 | 11.0 | 20.0 | 0.00 | 0.00 | 0.00 | 61 | 1015.3 |
| 20260507130636 | 44 | 282 | 15.0 | 20.0 | 0.00 | 0.00 | 0.00 | 61 | 1015.3 |
| 20260507130134 | 44 | 268 | 16.0 | 20.0 | 0.00 | 0.00 | 0.00 | 61 | 1015.0 |
| 20260507125633 | 43 | 292 | 18.0 | 23.0 | 0.00 | 0.00 | 0.00 | 61 | 1015.3 |
| 20260507125130 | 43 | 332 | 15.0 | 20.0 | 0.00 | 0.00 | 0.00 | 61 | 1015.0 |
| 20260507124626 | 42 | 293 | 16.0 | 18.0 | 0.00 | 0.00 | 0.00 | 62 | 1014.9 |
| 20260507124124 | 42 | 262 | 11.0 | 23.0 | 0.00 | 0.00 | 0.00 | 63 | 1015.0 |
| 20260507123622 | 42 | 282 | 15.0 | 20.0 | 0.00 | 0.00 | 0.00 | 63 | 1015.1 |
| 20260507123119 | 42 | 288 | 16.0 | 21.0 | 0.00 | 0.00 | 0.00 | 64 | 1015.0 |